Theta_e
292 293 293 292 292 291 290 291 290 290 289 289 289 289 289 289 289 288 288 287 286 287 288 288 288 289 289 289 290 290 289 288 284 288 290 292 291 291 294 296 295 296 296
291 291 291 291 291 290 289 290 290 289 289 289 288 288 288 288 288 287 287 287 286 286 287 287 287 288 287 288 289 287 287 288 286 284 287 288 289 291 293 293 292 294 295
291 291 290 290 290 289 289 289 289 288 288 288 287 287 287 287 287 287 286 286 286 286 286 285 286 286 285 286 286 285 285 286 286 284 283 286 287 289 289 290 289 290 294
290 289 288 289 289 290 289 289 288 288 288 287 287 287 287 287 286 286 285 286 286 286 287 286 285 285 284 284 284 285 285 284 285 284 283 284 286 287 287 286 287 289 289
288 286 286 287 288 289 289 288 288 287 287 287 287 286 287 286 285 286 285 285 285 286 286 285 285 285 284 284 283 284 284 283 283 283 282 283 284 284 284 287 286 288 288
285 284 284 285 285 285 286 286 287 286 286 286 285 285 285 285 285 284 284 284 285 284 284 283 284 284 284 283 284 285 285 283 283 282 282 281 282 284 286 286 286 284 283
283 282 281 281 282 283 284 285 284 285 285 285 285 285 284 284 284 283 283 284 284 283 283 282 281 282 282 283 283 284 285 284 284 282 280 281 282 285 286 285 285 285 284
282 281 281 278 278 281 282 282 283 284 284 284 284 285 285 284 283 283 283 284 284 285 284 282 281 281 282 282 283 283 283 282 282 282 282 282 283 284 285 285 285 285 285
280 281 282 278 276 278 278 280 283 283 284 284 284 284 283 282 283 283 282 283 284 284 284 283 283 281 282 283 283 281 281 281 283 283 284 284 284 285 285 284 282 283 282
283 284 283 278 276 276 279 280 283 283 284 284 284 284 284 283 283 282 282 283 282 282 283 283 281 280 281 283 282 280 278 280 280 280 281 282 282 282 282 282 283 282 283
284 284 282 278 276 277 278 281 282 282 284 283 283 283 283 282 281 282 282 282 282 281 281 280 280 280 282 282 282 280 279 280 279 280 281 281 281 282 281 280 281 282 282
283 283 283 280 278 278 278 280 281 282 281 280 281 280 281 280 278 281 282 283 284 281 280 279 279 280 280 279 280 280 280 278 279 280 280 279 278 279 281 280 278 278 279
282 282 283 280 277 277 277 278 280 280 279 280 279 279 279 280 281 281 282 283 283 280 279 279 278 278 278 278 277 277 275 277 278 278 277 278 278 279 281 281 280 279 278
280 282 284 280 278 276 277 279 280 278 279 280 278 277 280 280 280 280 280 281 279 278 277 277 276 276 276 276 276 276 276 275 275 276 277 278 280 279 279 280 279 279 277
280 281 283 281 278 276 276 278 279 281 282 281 280 280 281 280 280 282 281 281 281 279 274 277 277 277 277 276 277 275 275 275 275 277 277 277 278 278 277 280 280 279 276
279 281 283 282 278 276 276 276 280 281 282 283 282 282 281 281 281 282 282 282 281 276 275 277 276 275 274 274 274 275 275 273 272 276 276 277 277 277 277 278 277 276 274
279 280 282 281 279 276 275 276 276 279 281 282 283 283 282 281 282 283 282 280 280 277 275 275 275 274 274 273 273 273 273 272 272 275 276 277 277 277 278 277 276 276 274
276 280 282 283 280 278 276 277 277 277 278 279 282 283 283 281 282 283 281 277 274 273 274 274 273 274 273 273 273 273 273 274 274 274 274 274 275 276 275 274 274 274 274
278 280 282 282 281 279 278 277 278 278 278 280 280 283 283 283 283 283 282 276 276 274 272 272 272 272 272 272 271 272 271 271 271 273 273 273 274 274 272 272 271 271 273
278 281 284 282 280 278 277 277 277 277 278 278 279 281 282 282 280 280 281 276 274 275 272 272 271 270 270 271 271 272 273 273 272 272 272 272 272 273 271 271 272 271 271
275 281 282 281 280 278 277 277 277 277 277 278 279 282 282 281 280 279 276 275 275 273 272 272 270 270 269 269 270 271 271 271 270 270 271 271 271 270 271 271 270 270 270
275 280 282 280 280 278 277 277 277 277 278 278 278 280 282 281 281 279 277 276 275 274 273 272 270 270 269 269 271 272 270 269 269 270 269 269 270 270 270 269 269 269 269
271 277 280 279 279 278 277 277 277 277 278 278 277 277 280 280 278 277 277 276 274 271 270 270 269 267 266 266 269 272 271 270 270 270 269 269 270 270 270 269 268 268 268
269 274 278 278 277 277 277 277 277 277 278 277 276 277 278 280 277 277 276 275 273 270 267 268 268 267 264 265 266 267 268 267 267 269 269 269 266 267 267 266 266 265 265
268 272 276 277 277 276 276 276 277 277 277 277 276 276 277 279 277 276 275 273 270 268 266 267 267 266 264 263 264 265 263 262 265 264 267 268 267 266 265 265 265 265 265
266 269 273 275 276 276 275 276 276 276 276 277 277 276 275 277 277 276 273 271 268 268 266 266 266 266 265 264 264 263 260 262 261 263 266 266 265 265 265 264 264 264 264
Wind_Speed
11 11 11 10 10 10 11 11 11 9 8 8 8 7 7 7 7 7 8 10 11 11 12 12 13 13 10 10 9 9 10 10 15 13 11 11 13 12 14 14 12 14 12
12 11 12 12 11 12 13 12 11 11 9 9 8 8 8 8 7 8 9 9 11 12 12 13 14 10 12 11 9 13 11 12 12 20 13 11 13 12 15 17 12 12 13
12 12 12 13 14 15 14 13 12 11 10 9 9 9 9 8 8 8 9 10 11 11 11 12 12 12 12 10 11 11 11 10 11 13 14 11 11 11 12 12 11 12 12
12 12 14 14 14 15 14 14 13 12 11 10 10 10 9 9 9 8 8 9 11 11 11 12 12 12 13 13 12 13 12 11 12 12 12 12 11 10 9 10 10 7 9
9 10 12 13 14 14 14 14 13 12 11 10 10 10 10 9 7 8 8 10 11 11 12 12 12 12 15 16 10 12 13 12 11 12 12 11 10 9 9 6 8 9 9
11 13 12 13 13 13 14 14 13 14 12 11 11 11 10 7 10 10 10 9 11 11 10 11 12 12 13 16 18 21 19 14 15 12 12 13 14 11 9 8 6 6 6
12 11 12 12 14 14 13 13 13 13 11 11 11 11 10 9 10 11 11 9 9 11 11 10 10 9 12 11 16 23 19 20 21 15 15 14 15 11 10 9 9 7 9
14 12 12 10 12 13 12 14 13 10 11 10 10 9 8 8 11 10 12 8 9 10 9 10 11 12 11 11 13 13 13 12 12 9 12 13 13 12 11 11 10 9 8
12 13 13 9 10 11 12 13 12 9 9 9 9 9 10 10 12 10 9 7 9 9 8 8 9 11 13 18 12 12 13 11 11 16 18 19 18 16 12 6 7 5 6
15 15 11 8 9 12 12 12 10 8 9 7 9 9 10 11 11 10 9 5 8 7 8 7 10 9 16 17 10 10 12 11 12 11 9 9 8 7 9 7 6 8 5
16 15 11 8 9 11 11 10 9 9 8 9 10 9 11 10 9 11 11 6 7 6 7 6 5 11 15 14 13 8 11 13 12 8 7 6 6 5 5 4 3 8 6
17 16 13 8 8 8 11 9 10 9 10 10 11 9 8 9 11 11 12 11 10 7 8 5 6 13 12 11 9 14 15 12 5 6 6 6 6 6 7 7 8 7 8
19 17 14 9 8 8 11 10 9 10 10 10 9 8 7 7 7 13 12 10 11 6 6 7 10 9 9 6 9 13 9 6 5 5 5 6 6 6 5 4 6 9 13
19 18 14 9 8 8 8 8 9 10 10 10 9 9 7 6 6 6 6 4 6 4 5 4 3 4 5 5 5 7 5 5 5 5 4 5 5 6 6 6 5 7 10
18 16 15 8 8 8 10 9 11 11 12 10 9 8 8 8 8 10 8 5 4 4 2 2 2 3 4 4 4 5 5 6 6 5 5 5 6 6 7 6 7 7 10
16 13 11 8 7 6 7 8 19 18 18 18 12 10 6 3 10 14 12 9 8 9 1 2 1 2 3 4 5 5 6 6 6 5 5 5 6 7 7 8 8 8 8
14 13 11 9 7 7 8 8 8 11 17 19 19 15 12 10 12 13 10 7 7 7 3 2 1 1 1 2 3 4 4 5 5 5 6 6 6 6 7 7 7 7 9
18 19 12 10 8 7 8 8 7 8 10 9 17 16 15 12 16 15 12 9 4 3 2 4 3 2 2 2 2 3 3 4 5 5 6 6 6 6 7 7 7 8 8
14 11 12 10 8 7 6 7 7 8 8 7 6 14 13 16 15 16 14 4 4 4 4 4 4 3 2 2 2 2 3 4 4 4 5 6 6 6 8 8 8 9 9
14 18 14 8 6 6 6 7 7 7 8 8 8 9 10 11 10 10 8 6 4 4 5 4 4 4 3 2 3 2 3 3 4 4 5 5 6 6 7 7 7 8 8
11 11 10 8 7 7 7 9 7 7 8 8 8 9 17 11 11 10 7 7 6 5 6 5 5 4 4 3 3 3 3 4 3 3 4 5 5 7 7 7 7 7 8
11 10 8 8 6 7 8 8 7 7 7 8 7 9 22 9 8 8 8 7 6 5 5 6 5 5 5 5 4 5 4 4 4 4 5 5 6 6 6 7 7 7 7
9 11 9 7 6 7 7 7 7 7 7 7 8 8 11 11 8 8 8 7 7 6 5 5 5 4 3 3 2 3 5 5 4 4 6 6 6 6 5 7 6 7 7
10 10 10 8 6 6 6 6 7 8 7 7 8 8 9 10 9 9 7 7 7 7 6 6 6 7 6 4 3 2 3 5 4 4 6 6 7 6 6 6 6 8 7
8 9 8 7 6 7 7 6 7 7 7 7 7 8 8 8 8 8 8 7 7 8 8 6 6 9 9 8 6 6 6 6 5 5 5 6 8 8 7 6 7 7 7
8 8 7 6 6 6 6 7 7 7 7 7 7 7 8 8 8 8 8 8 8 8 9 7 8 10 11 8 8 9 8 8 7 6 6 6 7 6 6 8 9 7 7
Wind_Direction
301 284 272 262 249 239 237 234 228 223 218 229 238 244 250 257 264 271 274 277 276 279 282 280 280 280 278 279 278 275 273 273 278 287 290 286 283 279 281 282 289 289 287
322 303 285 269 252 241 237 233 229 227 217 224 233 240 245 251 258 265 273 275 275 274 277 281 281 284 287 285 282 283 280 280 283 291 293 292 283 280 276 280 286 280 284
321 315 297 279 262 248 239 234 224 223 222 216 226 234 241 244 252 261 267 270 270 273 282 281 282 287 289 285 284 284 285 287 288 286 291 286 284 283 280 276 277 275 271
311 302 294 277 266 253 245 236 230 220 221 217 225 231 235 241 247 255 263 266 270 275 276 286 286 285 282 288 288 289 288 282 279 280 282 284 278 282 276 277 278 270 287
296 289 283 278 269 259 244 225 224 223 220 219 223 230 233 237 246 252 255 267 268 277 286 292 289 285 288 282 284 285 285 284 280 280 279 281 283 282 275 278 280 291 285
294 294 294 285 269 250 239 229 212 210 214 215 219 225 228 234 243 249 262 268 271 280 283 289 295 292 285 295 290 285 279 278 279 289 285 278 280 278 272 274 279 287 301
289 293 290 286 275 256 239 224 213 203 199 211 218 221 223 234 240 253 265 271 274 278 286 288 294 284 286 287 284 284 286 284 280 283 279 278 281 284 287 273 269 270 275
281 291 286 280 272 262 239 224 213 195 197 201 212 215 221 236 236 252 267 270 270 269 280 283 279 288 291 293 287 295 295 292 286 279 277 282 281 285 279 277 281 283 277
274 282 286 272 265 254 233 225 210 193 201 206 212 215 219 238 236 251 262 270 269 275 272 267 272 282 297 295 303 302 305 299 297 300 294 296 299 298 293 286 255 256 282
286 286 280 266 247 248 236 223 207 198 205 205 215 222 226 237 236 243 248 259 273 285 280 280 274 278 297 309 309 315 303 317 320 321 325 320 314 310 311 272 260 253 247
287 284 268 250 243 242 236 218 207 200 199 213 226 226 231 228 234 238 241 248 267 285 288 301 299 303 310 314 310 306 310 318 319 316 324 336 336 342 356 356 315 245 242
289 279 268 251 240 241 230 207 215 200 204 216 222 229 230 234 225 233 239 242 264 272 280 298 303 316 318 323 316 323 328 324 319 334 344 353 346 356 18 32 34 49 52
286 277 265 244 232 227 222 201 204 202 205 212 216 225 229 217 218 223 238 242 260 264 266 287 304 320 316 315 336 337 340 338 342 5 358 352 356 349 12 39 45 59 59
280 275 269 242 233 210 218 203 201 200 203 208 210 220 216 206 205 207 209 218 241 236 262 264 299 338 320 338 332 346 352 353 350 1 3 352 -0 14 35 25 46 63 65
277 272 268 243 224 211 215 205 207 212 203 197 207 211 198 205 207 203 193 186 211 219 213 258 336 358 345 1 349 356 3 8 17 14 28 31 38 47 41 42 54 65 72
273 269 262 255 231 208 213 217 224 223 211 212 213 209 200 202 185 194 201 197 183 147 222 252 113 37 357 354 352 360 16 14 13 14 37 46 54 59 62 55 51 52 57
268 267 267 246 227 206 208 206 205 212 217 220 221 219 203 184 184 185 183 175 170 150 210 200 153 102 25 6 9 13 7 6 346 30 44 48 67 65 65 60 55 61 62
273 267 259 249 229 209 207 204 200 185 191 203 219 213 198 185 188 184 175 139 147 153 192 175 176 167 125 64 38 22 15 17 29 34 43 45 53 60 66 62 58 68 73
275 263 256 247 227 205 199 199 198 188 188 185 180 198 196 189 189 185 180 206 173 171 175 177 161 169 165 118 90 66 52 40 25 47 53 51 49 66 71 74 73 66 81
282 272 247 225 214 199 190 202 197 189 185 185 185 183 175 173 184 188 186 195 182 175 165 173 169 163 161 161 136 125 101 72 52 52 56 65 64 69 78 80 78 84 77
271 275 249 227 215 198 191 202 194 188 193 188 186 181 181 181 187 187 179 188 191 181 173 169 167 168 164 165 155 135 108 100 84 76 77 73 78 88 83 83 86 85 89
288 266 248 230 213 196 195 201 180 194 193 182 175 177 188 190 183 175 181 185 188 178 170 165 163 171 172 176 165 146 133 120 117 112 101 93 93 90 91 92 92 92 95
285 274 249 232 213 193 188 188 175 189 188 184 170 168 186 194 185 181 178 174 168 173 165 167 162 158 156 170 174 151 145 147 144 136 124 112 102 97 93 94 94 96 93
284 267 246 232 202 198 199 184 178 191 190 184 175 178 186 189 187 189 175 164 159 164 169 164 163 163 162 166 168 144 106 120 130 133 128 123 117 111 104 99 96 103 99
282 282 250 236 210 206 195 186 182 184 186 189 182 178 181 187 177 180 177 161 158 157 168 169 166 169 170 168 167 156 132 122 125 119 120 117 115 113 110 105 110 104 104
277 286 264 239 220 202 192 191 191 184 191 194 184 176 175 182 179 174 167 166 162 166 163 168 170 167 166 167 164 147 145 142 132 111 117 117 114 111 108 108 108 109 111